F5ZQC-13 Weather Reports


time (UTC)temp
C
wind
direction
speed
KPH
gust
KPH
rain 1hr
cm
rain 24hr
cm
rain mn
cm
humidity
%
barometer
mb
20260906143440 379 270 4.8 14.5 0.00 0.00 0.00 12 1799.4
20260906143036 379 270 11.3 11.3 0.00 0.00 0.00 11 1799.1
20260906142227 125 270 11.3 16.1 0.00 0.00 0.00 12 5318.5
20260906142030 379 270 8.0 16.1 0.00 0.00 0.00 11 4420.8
20260906141823 379 270 16.1 16.1 0.00 0.00 0.00 11 4420.8
20260906141621 -35 270 12.9 16.1 0.00 0.00 0.00 12 5318.5
20260906141217 9 270 11.3 11.3 0.00 0.00 0.00 12 5318.5
20260906141015 -30 270 4.8 17.7 0.00 0.00 0.00 12 5318.5
20260906140817 -32 270 4.8 17.7 0.00 0.00 0.00 12 5318.5
20260906140256 42 270 11.3 16.1 0.00 0.00 0.00 13 5318.5
20260906140100 379 270 11.3 17.7 0.00 0.00 0.00 12 1799.3
20260906135858 73 270 12.9 17.7 0.00 0.00 0.00 13 5318.5
20260906135449 378 270 9.7 17.7 0.00 0.00 0.00 14 4421.0
20260906135246 156 270 6.4 17.7 0.00 0.00 0.00 14 5318.5
20260906134842 -33 270 14.5 17.7 0.00 0.00 0.00 14 5318.5
20260906134640 -35 270 9.7 11.3 0.00 0.00 0.00 14 5318.5
20260906134438 -30 270 3.2 14.5 0.00 0.00 0.00 14 5318.5
20260906134034 0 270 3.2 20.9 0.00 0.00 0.00 14 5318.5
20260906133225 -53 270 9.7 12.9 0.00 0.00 0.00 15 5318.5
20260906132821 -23 270 4.8 17.7 0.00 0.00 0.00 15 5318.5
20260906132417 230 270 8.0 14.5 0.00 0.00 0.00 15 5318.5
20260906132013 536 270 9.7 14.5 0.00 0.00 0.00 1 5318.5
20260906131609 68 270 11.3 14.5 0.00 0.00 0.00 100 5318.5
20260906131008 378 270 6.4 12.9 0.00 0.00 0.00 1 4420.7
20260906130800 129 270 11.3 12.9 0.00 0.00 0.00 2 5318.5
20260906130559 -33 270 11.3 11.3 0.00 0.00 0.00 2 5318.5
20260906130357 -35 270 6.4 11.3 0.00 0.00 0.00 2 5318.5
20260906125953 -32 270 8.0 16.1 0.00 0.00 0.00 2 5318.5
20260906125347 -25 270 6.4 11.3 0.00 0.00 0.00 2 5318.5
20260906125144 -26 270 6.4 11.3 0.00 0.00 0.00 3 5318.5
20260906124942 -59 270 9.7 11.3 0.00 0.00 0.00 3 5318.5
20260906123934 53 270 16.1 16.1 0.00 0.00 0.00 4 5318.5
20260906123326 62 270 3.2 14.5 0.00 0.00 0.00 4 5318.5
20260906123140 115 270 6.4 14.5 0.00 0.00 0.00 4 5318.5
20260906121709 -33 270 14.5 16.1 0.00 0.00 0.00 4 5318.5
20260906121103 -25 270 6.4 12.9 0.00 0.00 0.00 4 5318.5
20260906120504 -24 270 9.7 14.5 0.00 0.00 0.00 5 5318.5
20260906120255 -33 270 12.9 16.1 0.00 0.00 0.00 5 5318.5
20260906115850 127 270 16.1 16.1 0.00 0.00 0.00 5 5318.5
20260906115649 48 270 16.1 16.1 0.00 0.00 0.00 5 5318.5
20260906115244 379 270 8.0 12.9 0.00 0.00 0.00 6 1799.3
20260906115044 57 270 4.8 14.5 0.00 0.00 0.00 5 5318.5
20260906114842 110 270 12.9 16.1 0.00 0.00 0.00 6 5318.5
20260906114639 9 270 9.7 16.1 0.00 0.00 0.00 6 5318.5
20260906114436 -35 270 6.4 14.5 0.00 0.00 0.00 6 5318.5
20260906113630 -31 270 0.0 8.0 0.00 0.00 0.00 8 5318.5
20260906113430 9 270 6.4 11.3 0.00 0.00 0.00 8 5318.5
20260906113224 -28 270 8.0 11.3 0.00 0.00 0.00 8 5318.5
20260906112821 9 270 9.7 12.9 0.00 0.00 0.00 6 5318.5
20260906112622 -27 270 11.3 11.3 0.00 0.00 0.00 7 5318.5
20260906112416 -69 270 9.7 11.3 0.00 0.00 0.00 8 5318.5
20260906112213 -25 270 6.4 14.5 0.00 0.00 0.00 7 5318.5
20260906112011 -38 270 6.4 14.5 0.00 0.00 0.00 6 5318.5
20260906111811 379 270 11.3 12.9 0.00 0.00 0.00 7 1799.4
20260906111607 379 270 12.9 12.9 0.00 0.00 0.00 7 4420.9
20260906111404 43 270 8.0 12.9 0.00 0.00 0.00 6 5318.5
20260906111204 379 270 9.7 12.9 0.00 0.00 0.00 7 1799.4
20260906111002 74 270 12.9 20.9 0.00 0.00 0.00 7 5318.5
20260906110556 379 270 14.5 16.1 0.00 0.00 0.00 6 1799.3
20260906110153 379 270 12.9 14.5 0.00 0.00 0.00 6 4420.8
20260906105950 113 270 9.7 14.5 0.00 0.00 0.00 5 5318.5
20260906105750 -35 270 6.4 14.5 0.00 0.00 0.00 5 5318.5
20260906105345 -32 270 9.7 11.3 0.00 0.00 0.00 5 5318.5
20260906105146 379 270 9.7 11.3 0.00 0.00 0.00 5 4420.7
20260906104739 378 270 8.0 9.7 0.00 0.00 0.00 5 4420.9
20260906104537 -26 270 4.8 14.5 0.00 0.00 0.00 5 5318.5
20260906104333 -28 270 9.7 14.5 0.00 0.00 0.00 5 5318.5
20260906104132 -23 270 6.4 9.7 0.00 0.00 0.00 5 5318.5
20260906103929 -25 270 6.4 9.7 0.00 0.00 0.00 5 5318.5
20260906103727 -43 270 8.0 11.3 0.00 0.00 0.00 4 5318.5
20260906103323 25 270 8.0 12.9 0.00 0.00 0.00 5 5318.5
20260906102717 69 270 8.0 11.3 0.00 0.00 0.00 5 5318.5
20260906102315 100 270 8.0 9.7 0.00 0.00 0.00 5 5318.5
20260906101911 130 270 8.0 8.0 0.00 0.00 0.00 5 5318.5
20260906101507 161 270 4.8 8.0 0.00 0.00 0.00 5 5318.5
20260906101304 139 270 6.4 6.4 0.00 0.00 0.00 5 5318.5
20260906101106 -32 270 4.8 9.7 0.00 0.00 0.00 5 5318.5
20260906100701 379 270 6.4 9.7 0.00 0.00 0.00 5 1799.4
20260906100457 -32 270 6.4 6.4 0.00 0.00 0.00 5 5318.5
20260906100054 -28 270 6.4 8.0 0.00 0.00 0.00 5 5318.5
20260906095446 -48 270 0.0 6.4 0.00 0.00 0.00 6 5318.5
20260906095243 -70 270 1.6 4.8 0.00 0.00 0.00 5 5318.5
20260906094840 497 270 1.6 6.4 0.00 0.00 0.00 6 5318.5
20260906094641 281 270 4.8 8.0 0.00 0.00 0.00 6 5318.5
20260906094437 63 270 1.6 8.0 0.00 0.00 0.00 6 5318.5
20260906094232 42 270 3.2 8.0 0.00 0.00 0.00 6 5318.5
20260906093423 379 270 8.0 8.0 0.00 0.00 0.00 6 4420.6
20260906093221 156 270 4.8 8.0 0.00 0.00 0.00 6 5318.5
20260906093020 134 270 6.4 6.4 0.00 0.00 0.00 6 5318.5
20260906092821 -33 270 1.6 6.4 0.00 0.00 0.00 6 5318.5
20260906092413 -35 270 4.8 6.4 0.00 0.00 0.00 8 5318.5
20260906092009 379 270 6.4 6.4 0.00 0.00 0.00 8 4420.9
20260906091808 -29 270 4.8 4.8 0.00 0.00 0.00 8 5318.5
20260906090959 -23 270 3.2 4.8 0.00 0.00 0.00 8 5318.5
20260906090557 446 270 1.6 4.8 0.00 0.00 0.00 8 5318.5
20260906090352 379 270 0.0 4.8 0.00 0.00 0.00 8 488.7
20260906090149 379 270 4.8 4.8 0.00 0.00 0.00 8 1799.4
20260906085843 89 270 3.2 6.4 0.00 0.00 0.00 8 5318.5
20260906085747 89 270 3.2 6.4 0.00 0.00 0.00 8 5318.5
20260906085347 120 270 1.6 6.4 0.00 0.00 0.00 9 5318.5
20260906084937 151 270 4.8 6.4 0.00 0.00 0.00 9 5318.5
20260906084607 -33 270 4.8 6.4 0.00 0.00 0.00 9 5318.5
20260906084331 379 270 4.8 4.8 0.00 0.00 0.00 9 1799.4
20260906083929 -32 270 3.2 6.4 0.00 0.00 0.00 9 5318.5
20260906083523 379 270 4.8 6.4 0.00 0.00 0.00 10 1799.4
20260906083150 -26 270 1.6 6.4 0.00 0.00 0.00 11 5318.5
20260906083119 -26 270 1.6 6.4 0.00 0.00 0.00 11 5318.5
20260906082722 -23 270 0.0 3.2 0.00 0.00 0.00 12 5318.5
20260906082311 379 270 3.2 4.8 0.00 0.00 0.00 12 1799.1
20260906080656 146 270 1.6 3.2 0.00 0.00 0.00 13 5318.5
20260906080049 -35 270 1.6 8.0 0.00 0.00 0.00 13 5318.5
20260906075643 -33 270 4.8 9.7 0.00 0.00 0.00 14 5318.5
20260906075244 -30 270 1.6 8.0 0.00 0.00 0.00 15 5318.5
20260906074846 379 270 1.6 3.2 0.00 0.00 0.00 16 1799.4
20260906074434 -24 270 0.0 1.6 0.00 0.00 0.00 15 5318.5
20260906074233 379 270 0.0 1.6 0.00 0.00 0.00 16 1799.4
20260906073421 434 270 3.2 4.8 0.00 0.00 0.00 16 5318.5
20260906072410 140 270 4.8 9.7 0.00 0.00 0.00 16 5318.5
20260906072209 119 270 1.6 6.4 0.00 0.00 0.00 16 1714.1
20260906071616 -31 270 6.4 8.0 0.00 0.00 0.00 17 5318.5
20260906071359 379 270 3.2 9.7 0.00 0.00 0.00 16 1799.3
20260906071158 379 270 6.4 9.7 0.00 0.00 0.00 16 4420.7
20260906070958 -31 270 8.0 9.7 0.00 0.00 0.00 16 5318.5
20260906070351 -69 270 4.8 16.1 0.00 0.00 0.00 17 403.4
20260906070152 379 270 6.4 16.1 0.00 0.00 0.00 16 1799.1
20260906065947 -38 270 4.8 17.7 0.00 0.00 0.00 16 5318.5
20260906065744 -60 270 9.7 17.7 0.00 0.00 0.00 16 5318.5
20260906065541 379 270 6.4 16.1 0.00 0.00 0.00 16 4420.6
20260906065353 379 270 12.9 22.5 0.00 0.00 0.00 16 1799.4
20260906065140 383 270 6.4 22.5 0.00 0.00 0.00 16 5318.5
20260906064907 -23 270 6.4 19.3 0.00 0.00 0.00 16 5318.5
20260906064701 -28 270 14.5 14.5 0.00 0.00 0.00 16 5318.5
20260906064257 178 270 11.3 20.9 0.00 0.00 0.00 16 5318.5
20260906062844 379 270 30.6 30.6 0.00 0.00 0.00 16 4420.8
20260906062531 -59 270 6.4 6.4 0.00 0.00 0.00 13 5318.5
20260906062326 -23 270 4.8 4.8 0.00 0.00 0.00 13 5318.5
20260906062131 -65 270 3.2 3.2 0.00 0.00 0.00 13 5320.2
20260906061925 25 270 1.6 1.6 0.00 0.00 0.00 14 5318.5
20260906061316 69 270 3.2 8.0 0.00 0.00 0.00 14 5318.5
20260906060913 100 270 3.2 11.3 0.00 0.00 0.00 13 5318.5
20260906060507 0 270 6.4 8.0 0.00 0.00 0.00 14 5320.2
20260906060310 108 270 6.4 8.0 0.00 0.00 0.00 14 5318.5
20260906055902 139 270 3.2 6.4 0.00 0.00 0.00 13 403.3
20260906055659 -32 270 4.8 4.8 0.00 0.00 0.00 14 5318.5
20260906055255 -30 270 0.0 4.8 0.00 0.00 0.00 13 5318.5
20260906055054 379 270 0.0 4.8 0.00 0.00 0.00 14 1799.4
20260906054651 -28 270 4.8 4.8 0.00 0.00 0.00 14 5318.5
20260906054446 -23 270 3.2 4.8 0.00 0.00 0.00 13 5318.5
20260906054047 -48 270 1.6 3.2 0.00 0.00 0.00 14 5318.5
20260906053638 -25 270 1.6 4.8 0.00 0.00 0.00 13 5318.5
20260906053436 379 270 1.6 4.8 0.00 0.00 0.00 13 1799.4
20260906052428 73 270 0.0 0.0 0.00 0.00 0.00 14 5318.5
20260906052224 379 270 0.0 0.0 0.00 0.00 0.00 14 1799.4
20260906052024 103 270 0.0 0.0 0.00 0.00 0.00 14 5318.5
20260906051821 156 270 0.0 0.0 0.00 0.00 0.00 14 403.4
20260906051416 379 270 0.0 1.6 0.00 0.00 0.00 14 4420.6
20260906051110 379 270 0.0 0.0 0.00 0.00 0.00 14 4421.0
20260906051105 -27 270 0.0 1.6 0.00 0.00 0.00 14 5318.5
20260906051037 379 270 0.0 0.0 0.00 0.00 0.00 14 4421.0
20260906051027 -27 270 0.0 1.6 0.00 0.00 0.00 14 5318.5
20260906050407 -29 270 0.0 1.6 0.00 0.00 0.00 15 5318.5
20260906044348 89 270 3.2 4.8 0.00 0.00 0.00 16 5318.5
20260906043139 -33 270 3.2 3.2 0.00 0.00 0.00 16 5318.5
20260906040304 379 270 4.8 6.4 0.00 0.00 0.00 16 1799.4
20260906035658 115 270 6.4 11.3 0.00 0.00 0.00 17 5318.5
20260906035455 -35 270 4.8 11.3 0.00 0.00 0.00 17 5318.5
20260906035125 379 270 4.8 9.7 0.00 0.00 0.00 18 1799.4
20260906035051 379 270 4.8 9.7 0.00 0.00 0.00 18 1799.4
20260906034648 155 270 3.2 3.2 0.00 0.00 0.00 18 5318.5
20260906034445 -31 270 1.6 3.2 0.00 0.00 0.00 19 5318.5
20260906034043 -28 270 0.0 0.0 0.00 0.00 0.00 20 5318.5
20260906033435 -27 270 1.6 4.8 0.00 0.00 0.00 19 5318.5
20260906033032 -24 270 3.2 4.8 0.00 0.00 0.00 20 5318.5
20260906032830 -33 270 3.2 4.8 0.00 0.00 0.00 20 5318.5
20260906031414 110 270 4.8 4.8 0.00 0.00 0.00 21 5318.5
20260906031214 88 270 3.2 4.8 0.00 0.00 0.00 21 5318.5
20260906030610 -35 270 4.8 4.8 0.00 0.00 0.00 21 5318.5
20260906025353 379 270 6.4 6.4 0.00 0.00 0.00 22 1799.3
20260906025152 -27 270 4.8 6.4 0.00 0.00 0.00 22 5318.5
20260906024949 -35 270 4.8 6.4 0.00 0.00 0.00 22 5318.5
20260906024748 -25 270 4.8 6.4 0.00 0.00 0.00 22 5318.5
20260906024142 76 270 6.4 8.0 0.00 0.00 0.00 22 5318.5
20260906023535 74 270 4.8 4.8 0.00 0.00 0.00 22 5318.5
20260906023334 52 270 1.6 4.8 0.00 0.00 0.00 21 5318.5
20260906022935 83 270 3.2 3.2 0.00 0.00 0.00 21 5318.5
20260906022726 0 270 3.2 4.8 0.00 0.00 0.00 21 5318.5
20260906021918 -32 270 3.2 6.4 0.00 0.00 0.00 22 5318.5
20260906021110 9 270 3.2 4.8 0.00 0.00 0.00 22 5318.5
20260906020910 -28 270 3.2 4.8 0.00 0.00 0.00 23 5318.5
20260906020705 -23 270 4.8 4.8 0.00 0.00 0.00 23 403.4
20260906020506 -25 270 4.8 6.4 0.00 0.00 0.00 23 5318.5
20260906020301 -43 270 4.8 6.4 0.00 0.00 0.00 23 5318.5
20260906015655 38 270 4.8 4.8 0.00 0.00 0.00 22 5318.5
20260906014914 100 270 1.6 4.8 0.00 0.00 0.00 22 5318.5
20260906014645 379 270 3.2 4.8 0.00 0.00 0.00 22 1799.3
20260906014240 108 270 0.0 1.6 0.00 0.00 0.00 21 5318.5
20260906014039 379 270 0.0 1.6 0.00 0.00 0.00 21 1799.4
20260906013634 -32 270 0.0 1.6 0.00 0.00 0.00 21 5318.5
20260906013433 -35 270 0.0 1.6 0.00 0.00 0.00 21 5318.5
20260906013232 379 270 0.0 0.0 0.00 0.00 0.00 21 488.7
20260906012828 -26 270 0.0 0.0 0.00 0.00 0.00 21 5318.5
20260906012624 379 270 0.0 0.0 0.00 0.00 0.00 21 4420.8
20260906012423 -23 270 0.0 4.8 0.00 0.00 0.00 20 5318.5
20260906012220 -26 270 0.0 4.8 0.00 0.00 0.00 20 5318.5
20260906011614 379 270 1.6 1.6 0.00 0.00 0.00 20 1799.3
20260906011412 497 270 0.0 3.2 0.00 0.00 0.00 19 5318.5
20260906011210 281 270 1.6 3.2 0.00 0.00 0.00 19 5318.5
20260906010607 95 270 0.0 0.0 0.00 0.00 0.00 20 5318.5
20260906010159 125 270 0.0 0.0 0.00 0.00 0.00 19 5318.5
20260906005350 -33 270 0.0 0.0 0.00 0.00 0.00 18 5318.5
20260906005149 -35 270 0.0 0.0 0.00 0.00 0.00 18 5318.5
20260906004946 -30 270 0.0 0.0 0.00 0.00 0.00 18 5318.5
20260906004746 -32 270 0.0 0.0 0.00 0.00 0.00 18 5318.5
20260906004342 -29 270 0.0 1.6 0.00 0.00 0.00 18 5318.5
20260906003533 378 270 0.0 1.6 0.00 0.00 0.00 18 4420.7
20260906003422 -23 270 0.0 1.6 0.00 0.00 0.00 18 5318.5
20260906003340 -23 270 0.0 1.6 0.00 0.00 0.00 18 5318.5
20260906003128 446 270 1.6 1.6 0.00 0.00 0.00 18 5321.1
20260906002726 58 270 1.6 3.2 0.00 0.00 0.00 17 5318.5
20260906001916 379 270 0.0 3.2 0.00 0.00 0.00 17 1799.4
20260905235904 -25 270 3.2 3.2 0.00 0.00 0.00 17 5318.5
20260905235653 -26 270 1.6 3.2 0.00 0.00 0.00 17 5318.5
20260905232018 379 270 3.2 4.8 0.00 0.00 0.00 19 4420.7
20260905231615 -25 270 6.4 6.4 0.00 0.00 0.00 18 5318.5
20260905231209 -64 270 4.8 4.8 0.00 0.00 0.00 18 5318.5
20260905230607 -55 270 0.0 0.0 0.00 0.00 0.00 17 5318.5
20260905230359 9 270 0.0 3.2 0.00 0.00 0.00 18 5318.5
20260905225557 57 270 0.0 1.6 0.00 0.00 0.00 18 5318.5
20260905225349 110 270 1.6 1.6 0.00 0.00 0.00 18 5318.5
20260905225146 88 270 0.0 3.2 0.00 0.00 0.00 18 5318.5
20260905224947 379 270 1.6 3.2 0.00 0.00 0.00 19 1799.4
20260905224746 119 270 3.2 3.2 0.00 0.00 0.00 19 5318.5
20260905224342 150 270 0.0 0.0 0.00 0.00 0.00 19 5318.5
20260905224144 -31 270 0.0 1.6 0.00 0.00 0.00 19 5318.5
20260905223935 -33 270 0.0 4.8 0.00 0.00 0.00 19 5318.5
20260905223329 -25 270 6.4 6.4 0.00 0.00 0.00 20 5318.5
20260905223134 -27 270 4.8 9.7 0.00 0.00 0.00 20 5318.5
20260905222924 -69 270 6.4 9.7 0.00 0.00 0.00 20 5318.5
20260905222322 379 270 1.6 1.6 0.00 0.00 0.00 19 4420.8
20260905221914 43 270 0.0 1.6 0.00 0.00 0.00 19 5318.5
20260905221733 383 270 0.0 1.6 0.00 0.00 0.00 18 5318.5
20260905221509 74 270 0.0 1.6 0.00 0.00 0.00 19 4010.3
20260905221307 52 270 0.0 3.2 0.00 0.00 0.00 19 5318.5
20260905221107 105 270 0.0 9.7 0.00 0.00 0.00 19 5318.5
20260905220257 379 270 6.4 16.1 0.00 0.00 0.00 18 1799.4
20260905214843 -28 270 8.0 11.3 0.00 0.00 0.00 19 5318.5
20260905214640 -23 270 8.0 14.5 0.00 0.00 0.00 20 5318.5
20260905214438 -25 270 8.0 14.5 0.00 0.00 0.00 20 5318.5
20260905214236 -43 270 12.9 14.5 0.00 0.00 0.00 20 5318.5
20260905213428 332 270 11.3 11.3 0.00 0.00 0.00 22 5318.5
20260905213226 69 270 9.7 11.3 0.00 0.00 0.00 22 5318.5
20260905213025 47 270 6.4 8.0 0.00 0.00 0.00 22 5318.5
20260905212418 130 270 4.8 8.0 0.00 0.00 0.00 22 5318.5
20260905212229 108 270 6.4 9.7 0.00 0.00 0.00 22 5318.5
20260905211407 379 270 6.4 6.4 0.00 0.00 0.00 23 4420.8
20260905211207 -30 270 4.8 4.8 0.00 0.00 0.00 23 5318.5
20260905211012 -32 270 3.2 4.8 0.00 0.00 0.00 23 5318.5
20260905210357 -23 270 3.2 4.8 0.00 0.00 0.00 23 4010.3
20260905210155 379 270 3.2 4.8 0.00 0.00 0.00 22 1799.3
20260905205350 369 270 4.8 6.4 0.00 0.00 0.00 22 5318.5
20260905204537 82 270 4.8 4.8 0.00 0.00 0.00 22 5318.5
20260905204334 379 270 3.2 3.2 0.00 0.00 0.00 22 1799.3
20260905203931 91 270 1.6 1.6 0.00 0.00 0.00 22 5318.5
20260905202514 -28 270 1.6 1.6 0.00 0.00 0.00 21 5318.5
20260905202312 -30 270 0.0 0.0 0.00 0.00 0.00 21 5318.5
20260905201911 -27 270 0.0 0.0 0.00 0.00 0.00 21 5318.5
20260905201503 -24 270 0.0 0.0 0.00 0.00 0.00 21 5318.5
20260905200654 46 270 1.6 3.2 0.00 0.00 0.00 21 5318.5
20260905200250 -35 270 0.0 3.2 0.00 0.00 0.00 21 5318.5
20260905195644 379 270 1.6 4.8 0.00 0.00 0.00 20 1799.4
20260905195241 116 270 1.6 3.2 0.00 0.00 0.00 20 5318.5
20260905194431 379 270 1.6 6.4 0.00 0.00 0.00 20 1799.1
20260905193421 -72 270 1.6 4.8 0.00 0.00 0.00 19 5318.5
20260905192411 379 270 4.8 8.0 0.00 0.00 0.00 18 1799.1
20260905192006 71 270 1.6 6.4 0.00 0.00 0.00 18 5318.5
20260905191603 -35 270 0.0 6.4 0.00 0.00 0.00 18 5318.5
20260905185340 -28 270 1.6 3.2 0.00 0.00 0.00 17 5318.5
20260905184535 -67 270 3.2 3.2 0.00 0.00 0.00 16 5318.5
20260905184329 0 270 1.6 3.2 0.00 0.00 0.00 16 5318.5
20260905184127 379 270 1.6 3.2 0.00 0.00 0.00 16 1799.4
20260905183927 306 270 1.6 1.6 0.00 0.00 0.00 15 5318.5
20260905183724 379 270 1.6 1.6 0.00 0.00 0.00 15 1799.4
20260905183117 75 270 3.2 6.4 0.00 0.00 0.00 14 5318.5
20260905182915 127 270 1.6 6.4 0.00 0.00 0.00 14 5318.5
20260905182511 158 270 1.6 4.8 0.00 0.00 0.00 13 5318.5
20260905181904 379 270 6.4 9.7 0.00 0.00 0.00 13 1799.3
20260905181703 -30 270 4.8 9.7 0.00 0.00 0.00 13 5318.5
20260905181500 -32 270 6.4 9.7 0.00 0.00 0.00 12 5318.5
20260905181258 -27 270 8.0 9.7 0.00 0.00 0.00 12 5318.5
20260905181056 379 270 8.0 9.7 0.00 0.00 0.00 11 4480.2
20260905180249 379 270 8.0 11.3 0.00 0.00 0.00 11 1799.3
20260905180046 379 270 6.4 11.3 0.00 0.00 0.00 10 4420.8
20260905175642 255 270 9.7 11.3 0.00 0.00 0.00 10 5318.5
20260905175440 379 270 9.7 11.3 0.00 0.00 0.00 10 1799.4
20260905173419 -30 270 11.3 11.3 0.00 0.00 0.00 8 5318.5
20260905172611 -24 270 6.4 9.7 0.00 0.00 0.00 8 5318.5
20260905172408 -26 270 6.4 8.0 0.00 0.00 0.00 7 5318.5
20260905172210 379 270 6.4 11.3 0.00 0.00 0.00 7 1799.4
20260905172004 -23 270 9.7 11.3 0.00 0.00 0.00 7 5318.5
20260905171601 379 270 8.0 11.3 0.00 0.00 0.00 6 4420.8
20260905171227 379 270 4.8 11.3 0.00 0.00 0.00 6 1799.3
20260905171156 379 270 4.8 11.3 0.00 0.00 0.00 6 1799.3
20260905170954 379 270 9.7 9.7 0.00 0.00 0.00 6 488.7
20260905170146 379 270 8.0 11.3 0.00 0.00 0.00 5 1799.4
20260905165738 119 270 9.7 11.3 0.00 0.00 0.00 4 5318.5
20260905165132 -31 270 8.0 9.7 0.00 0.00 0.00 4 5318.5
20260905164931 -33 270 6.4 9.7 0.00 0.00 0.00 4 5318.5
20260905164324 -25 270 6.4 11.3 0.00 0.00 0.00 4 5318.5
20260905163920 -69 270 6.4 9.7 0.00 0.00 0.00 4 5318.5
20260905163112 76 270 9.7 11.3 0.00 0.00 0.00 4 403.3
20260905162910 43 270 8.0 9.7 0.00 0.00 0.00 4 5318.5
20260905161901 83 270 4.8 12.9 0.00 0.00 0.00 4 5318.5
20260905161456 113 270 9.7 12.9 0.00 0.00 0.00 4 5318.5
20260905161258 -35 270 6.4 11.3 0.00 0.00 0.00 4 5320.2
20260905161055 145 270 9.7 9.7 0.00 0.00 0.00 4 5318.5
20260905160647 -34 270 6.4 12.9 0.00 0.00 0.00 4 5318.5
20260905160445 379 270 9.7 11.3 0.00 0.00 0.00 5 1799.3
20260905160245 -31 270 9.7 9.7 0.00 0.00 0.00 5 5318.5
20260905160042 379 270 6.4 9.7 0.00 0.00 0.00 5 1799.4
20260905155636 379 270 3.2 8.0 0.00 0.00 0.00 5 1799.4
20260905154629 379 270 8.0 12.9 0.00 0.00 0.00 4 1799.4
20260905154427 332 270 8.0 12.9 0.00 0.00 0.00 4 5318.5
20260905153418 130 270 3.2 11.3 0.00 0.00 0.00 4 5318.5
20260905153212 108 270 3.2 11.3 0.00 0.00 0.00 5 5318.5
20260905152807 139 270 8.0 11.3 0.00 0.00 0.00 5 5318.5
20260905152605 -32 270 11.3 11.3 0.00 0.00 0.00 5 5318.5
20260905152201 -30 270 6.4 12.9 0.00 0.00 0.00 5 5318.5
20260905152001 379 270 11.3 12.9 0.00 0.00 0.00 5 4480.2
20260905151801 9 270 6.4 9.7 0.00 0.00 0.00 5 5318.5
20260905151555 379 270 9.7 9.7 0.00 0.00 0.00 5 1799.3
20260905151153 379 270 6.4 12.9 0.00 0.00 0.00 4 4420.7
20260905150343 497 270 1.6 11.3 0.00 0.00 0.00 5 5318.5
20260905150140 -35 270 9.7 11.3 0.00 0.00 0.00 5 5318.5
20260905145939 378 270 8.0 11.3 0.00 0.00 0.00 5 4420.7
20260905145738 379 270 9.7 11.3 0.00 0.00 0.00 5 1799.4
20260905145534 95 270 6.4 6.4 0.00 0.00 0.00 5 5318.5
20260905144730 379 270 0.0 11.3 0.00 0.00 0.00 5 1799.4
20260905144322 379 270 8.0 12.9 0.00 0.00 0.00 6 1799.4
20260905144120 -35 270 8.0 14.5 0.00 0.00 0.00 6 5318.5